Location: Altoona
(40.5167°N, 78.4000°W)
Time: 00:58:26
(UTC-05:00)

NOAA 11 - Pass Details

Date: 21 August 2017
Orbit: 834 x 849 km, 98.5° (Epoch: 24 November)

Event Time Altitude Azimuth Distance (km) Brightness Sun altitude
Exits shadow 22:12:06 33° 183° (S) 1,378 5.0 -22.6°
Maximum altitude 22:14:35 70° 258° (WSW) 901 4.4 -22.9°
Drops below altitude 10° 22:20:05 10° 342° (NNW) 2,481 7.4 -23.7°
Sets 22:22:28 0° 345° (NNW) 3,419 8.3 -24.0°
